Terug naar catalogus

TIANQI 22

ActiefCommunicatieLEO
NORAD 57793·PAYLOAD·🇨🇳 China

Gelanceerd Sep 5, 2023 vanaf Yellow Sea Launch Area

Loading…

Volgende Passages (komende 24 uur)

TLE

VersSource: Space-Track

Epoch: Sep 14, 2026, 15:15 UTC

1 57793U 23135B   26257.63600146  .00000291  00000-0  19784-3 0  9997
2 57793  49.9676 136.0519 0011763 214.2892 145.7262 14.23160119157362

Volg TIANQI 22 in realtime met AllMySat

Download on the App Store